Aérodrome :
LOGIN :

S'inscrire | Disclaimer

   EN    FR    IT 

 










Légende :    VFR   VFR Marginal   IFR   IFR Intensif   IFR Très Intensif
Visi : 
Plafond : 
>= 8 km
>= 3000ft
5 à 8 km
1000 à 3000 ft
1500m à 5 km
500 à 1000 ft
800 à 1500m
200 à 500 ft
< 800m
< 200 ft
Symboles :   Orages  Brouillard  Fortes neiges  Fortes précipitations  Vent > 20 kt
SIGMETs :   Divers  Orages  Givrage  Turbulence  Onde Orograph.  Cendres Volcan.







- Altitude de l'aérodrome : 74 ft
- Code IATA : MRS
- Voir les cartes d'approche


LFML - Marseille / Marignane

DERNIER METAR :
  • 211530Z AUTO 20009KT CAVOK 22/10 Q1018 NOSIG

METARs EXPIRÉS :
  • 211500Z AUTO 20009KT CAVOK 23/10 Q1018 NOSIG
  • 211430Z AUTO 20008KT CAVOK 23/09 Q1018 NOSIG
  • 211400Z AUTO 20008KT CAVOK 24/07 Q1018 NOSIG
  • 211330Z AUTO 20010KT CAVOK 23/07 Q1018 NOSIG
  • 211300Z AUTO 20009KT 160V220 CAVOK 23/06 Q1018 NOSIG

TAF TAF LFML
Valide du 21 à 15h jusqu'au 22 à 21h UTC


211400Z 2115/2221 20013KT CAVOK
TEMPO 2118/2209 VRB03KT BKN014 TX23/2213Z TN15/2203Z
ATIS : +33 4 42 31 15 15
Pas de NOTAMs connus pour ce terrain.



MET'MAP, la Météo Aéronautique d'un coup d'oeil ! - Copyright ORBIFLY Décembre 2007 - Disclaimer

ORBIFLY MET'MAP TEAM :

Programmation & Développement : Alexandra Zaïnal
Conception & Développement : Baudouin d'Aumeries
Co-Programmation & Développement : Marc-Olivier Méhu
Soutien technique & logistique : Manuel Goepfert

Contact : metmap@orbifly.com




SOURCES & CREDITS :

   NOAA